Regional Weather Roundup
Issued by NWS New Orleans/Baton Rouge, LA

Home | Current Version | Previous Version | Graphics & Text | Print | Product List | Glossary On
Versions: 1 2 3 4 5 6 7 8 9 10 11 12 13 14 15 16 17 18 19 20 21 22 23 24 25 26 27 28 29 30 31 32 33 34 35 36 37 38 39 40 41 42 43 44 45 46 47 48 49 50
857
ASUS44 KLIX 301105
RWRLIX
NEW ORLEANS REGIONAL WEATHER ROUNDUP
NATIONAL WEATHER SERVICE NEW ORLEANS LA
600 AM CDT THU OCT 30 2014

NOTE: "FAIR" INDICATES FEW OR NO CLOUDS BELOW 12,000 FEET WITH NO
      SIGNIFICANT WEATHER AND/OR OBSTRUCTIONS TO VISIBILITY.
      SKY/WX - SKY CONDITION AND SIGNIFICANT WEATHER.
      TMP - AIR TEMPERATURE.     DP    - DEWPOINT TEMPERATURE.
      RH  - RELATIVE HUMIDITY.   PRES  - PRESSURE.
      HI  - HEAT INDEX.          WCI   - WIND CHILL INDEX.

*  THESE STATIONS ARE NOT NWS OR FAA STATIONS AND ARE NOT UNDER
   NWS QUALITY CONTROL.

LAZ038-040-048-061>063-065>067-069-301200-
SOUTHEAST LOUISIANA

CITY           SKY/WX    TMP DP  RH WIND       PRES   REMARKS
N.O. AUDUBON   NOT AVBL
N.O. INTL ARPT PTCLDY    65  46  50 NE14      30.08R
N.O. LAKEFRONT PTCLDY    66  48  52 NE17      30.08R
N.O. DOWNTOWN*   N/A     64  45  48 N6        30.08R
SLIDELL        CLEAR     53  47  79 N6        30.08R
BATON ROUGE    CLEAR     51  46  83 NE5       30.10R
BOOTHVILLE     CLOUDY    69  59  70 NE10      30.04S
BELLE CHASSE   MOCLDY    62  48  60 N6        30.07R
BOGALUSA*        N/A     49  45  86 N5        30.11R
NEW ROADS*       N/A     50  45  82 N3        30.11R
GONZALES*        N/A     56  52  86 N3        30.09R
HAMMOND*       NOT AVBL
HOUMA*         PTCLDY    61  54  77 N7        30.07R
PORT FOURCHON* CLOUDY    70  59  68 NE13G21   30.08R

$$

MSZ070-080>082-301200-
SOUTHERN MISSISSIPPI

CITY           SKY/WX    TMP DP  RH WIND       PRES   REMARKS
MCCOMB         CLEAR     52  43  71 N5        30.11R
GULFPORT       CLEAR     57  45  64 N7        30.06R
BILOXI         CLEAR     58  48  69 N9        30.06S
PASCAGOULA     CLEAR     55  51  86 N6        30.06R

$$

COASTAL OBSERVATIONS
LAKE AND NEARSHORE STATIONS

STATION/POSITION TIME  TEMP    WIND        PRES    WAVE
                       AIR SEA DIR/SP/G            HT/PER
                 (UTC) (F)     (DEG/KT/KT) (MB)    (FT/S)
PASCAGOULA       1100   59     360/  9/ 12 1017.2
WAVELAND YACHT   1100   60      20/  9/ 12 1017.5
GRAND ISLE       1100   69 76   50/ 13/ 16 1017.7
SOUTHWEST PASS   1100   69 79              1016.9
NEW CANAL        1100   66 71   50/ 16/ 18 1018.6
SHELL BEACH      1100   66 70   40/ 17/ 20 1017.7

OFFSHORE STATIONS

STATION/POSITION TIME  TEMP    WIND        PRES    WAVE
                       AIR SEA DIR/SP/G            HT/PER
                 (UTC) (F)     (DEG/KT/KT) (MB)    (FT/S)
64 S DAUPHIN ISL 1005   71 78   20/ 16/ 17 1016.7    4/ 5

$$




USA.gov is the U.S. government's official web portal to all federal, state and local government web resources and services.